Retour au catalogue

DELTA 1 DEB

ActifLEO
NORAD 10220·DEBRIS·🇺🇸 United States

Lancé Jul 14, 1977 depuis Cape Canaveral Space Force Station

Loading…

Prochains Passages (prochaines 24 heures)

TLE

FraisSource: Space-Track

Époque: Sep 14, 2026, 05:41 UTC

1 10220U 77065AX  26257.23682701  .00006188  00000-0  18173-2 0  9996
2 10220  29.1370 331.6837 0348136 180.5193 179.5049 14.12493176389140

Suivez DELTA 1 DEB en temps réel avec AllMySat

Download on the App Store